Location: Bathurst
(33.4193°S, 149.5775°E)
Time: 00:25:31
(UTC+10:00)

Vanguard 1 - Visible Passes

Search period start: 23 June 2021 00:00
Search period end: 03 July 2021 00:00
Orbit: 650 x 3833 km, 34.2° (Epoch: 21 June)

Date Brightness Start Highest point End Pass type
(mag) Time Alt. Az. Time Alt. Az. Time Alt. Az.
23 Jun 14.5 17:01:17 10° WNW 17:10:56 21° NW 17:24:03 10° N visible
24 Jun 14.7 17:25:09 10° WNW 17:32:26 15° NW 17:41:22 10° N visible
25 Jun 12.2 06:03:58 10° N 06:06:00 12° NNE 06:07:57 10° ENE visible
26 Jun 11.8 06:23:12 10° NNW 06:26:48 20° NNE 06:30:09 10° ENE visible
28 Jun 12.5 04:47:37 10° NNE 04:48:24 10° NNE 04:49:08 10° NE visible
29 Jun 12.0 05:05:36 10° NNW 05:09:22 17° NNE 05:12:29 10° ENE visible
30 Jun 11.4 05:25:26 10° NNW 05:30:18 26° NNE 05:34:08 10° E visible
01 Jul 10.7 05:45:49 10° NW 05:51:12 37° NNE 05:55:23 10° E visible
02 Jul 12.3 03:50:45 16° NNE 03:51:38 16° NNE 03:55:10 10° ENE visible
02 Jul 10.1 06:06:31 10° WNW 06:12:05 52° NNE 06:16:25 10° E visible
